When you browse on this site, cookies collect data to enhance your experience and personalize the content and advertising you see.
Visit our Privacy Policy to learn more. By continuing to use the site, you agree to this use of cookies and data.
  • In Spain
  • List of Countries
  • For 7 days
  • Water Temperature
  • Satellite Maps
  • Weather Map
  • Weather Widgets
  • user-avatar
    Login

    Hourly Weather Dover

    Today, 21 April, Sunday

    Time Temperature Precipitation Wind Pressure Humidity
    00:00 +13°C° 0 mm 3 mps 757 mmHg 78%
    01:00 +14°C° 0 mm 2 mps 757 mmHg 76%
    02:00 +14°C° 0 mm 2 mps 757 mmHg 77%
    03:00 +13°C° 0 mm 2 mps 758 mmHg 79%
    04:00 +13°C° 0 mm 2 mps 758 mmHg 81%
    05:00 +12°C° 0 mm 3 mps 759 mmHg 79%
    06:00 +12°C° 0 mm 3 mps 759 mmHg 78%
    07:00 +13°C° 0 mm 4 mps 759 mmHg 77%
    08:00 +14°C° 0 mm 3 mps 760 mmHg 71%
    09:00 +16°C° 0 mm 3 mps 760 mmHg 64%
    10:00 +17°C° 0 mm 3 mps 760 mmHg 58%
    11:00 +18°C° 0 mm 3 mps 760 mmHg 55%
    12:00 +18°C° 0 mm 3 mps 760 mmHg 53%
    13:00 +19°C° 0 mm 2 mps 760 mmHg 50%
    14:00 +19°C° 0 mm 2 mps 760 mmHg 51%
    15:00 +19°C° 0 mm 2 mps 760 mmHg 51%
    16:00 +19°C° 0 mm 2 mps 761 mmHg 52%
    17:00 +17°C° 0 mm 3 mps 761 mmHg 58%
    18:00 +16°C° 0 mm 3 mps 761 mmHg 65%
    19:00 +14°C° 0 mm 3 mps 761 mmHg 72%
    20:00 +14°C° 0 mm 2 mps 762 mmHg 72%
    21:00 +14°C° 0 mm 2 mps 762 mmHg 73%
    22:00 +14°C° 0 mm 2 mps 763 mmHg 73%
    23:00 +13°C° 0 mm 2 mps 762 mmHg 75%

    Tomorrow, 22 April, Monday

    Time Temperature Precipitation Wind Pressure Humidity
    00:00 +13°C° 0 mm 2 mps 762 mmHg 77%
    01:00 +13°C° 0 mm 2 mps 762 mmHg 79%
    02:00 +13°C° 0 mm 2 mps 762 mmHg 81%
    03:00 +12°C° 0 mm 2 mps 762 mmHg 82%
    04:00 +12°C° 0 mm 2 mps 762 mmHg 84%
    05:00 +13°C° 0 mm 2 mps 762 mmHg 83%
    06:00 +13°C° 0 mm 2 mps 762 mmHg 82%
    07:00 +12°C° 0 mm 3 mps 763 mmHg 82%
    08:00 +14°C° 0 mm 3 mps 763 mmHg 78%
    09:00 +15°C° 0 mm 4 mps 763 mmHg 74%
    10:00 +18°C° 0 mm 4 mps 763 mmHg 70%
    11:00 +18°C° 0.1 mm 4 mps 763 mmHg 66%
    12:00 +19°C° 0.1 mm 4 mps 762 mmHg 63%
    13:00 +20°C° 0.1 mm 4 mps 762 mmHg 59%
    14:00 +21°C° 0.1 mm 4 mps 762 mmHg 59%
    15:00 +21°C° 0.1 mm 4 mps 762 mmHg 59%
    16:00 +21°C° 0.1 mm 4 mps 761 mmHg 60%
    17:00 +20°C° 0.1 mm 4 mps 761 mmHg 65%
    18:00 +19°C° 0.1 mm 4 mps 762 mmHg 70%
    19:00 +18°C° 0.1 mm 4 mps 762 mmHg 75%
    20:00 +17°C° 0 mm 4 mps 762 mmHg 77%
    21:00 +16°C° 0 mm 3 mps 762 mmHg 79%
    22:00 +16°C° 0 mm 3 mps 763 mmHg 81%
    23:00 +14°C° 0 mm 3 mps 762 mmHg 82%

    Day after tomorrow, 23 April, Tuesday

    Time Temperature Precipitation Wind Pressure Humidity
    00:00 +14°C° 0 mm 3 mps 762 mmHg 83%
    01:00 +13°C° 0 mm 3 mps 762 mmHg 84%
    02:00 +13°C° 0 mm 3 mps 762 mmHg 85%
    03:00 +12°C° 0 mm 3 mps 762 mmHg 85%
    04:00 +13°C° 0 mm 2 mps 762 mmHg 86%
    05:00 +14°C° 0 mm 2 mps 762 mmHg 83%
    06:00 +14°C° 0 mm 2 mps 763 mmHg 81%
    07:00 +15°C° 0 mm 2 mps 763 mmHg 79%
    08:00 +17°C° 0 mm 2 mps 763 mmHg 73%
    09:00 +20°C° 0 mm 1 mps 763 mmHg 66%
    10:00 +22°C° 0 mm 1 mps 763 mmHg 60%
    11:00 +23°C° 0 mm 2 mps 762 mmHg 56%
    12:00 +23°C° 0 mm 2 mps 762 mmHg 52%
    13:00 +24°C° 0 mm 2 mps 761 mmHg 48%
    14:00 +25°C° 0 mm 3 mps 761 mmHg 48%
    15:00 +25°C° 0 mm 3 mps 760 mmHg 49%
    16:00 +25°C° 0 mm 4 mps 759 mmHg 49%
    17:00 +22°C° 0 mm 4 mps 759 mmHg 57%
    18:00 +20°C° 0 mm 4 mps 759 mmHg 64%
    19:00 +18°C° 0 mm 4 mps 758 mmHg 71%
    20:00 +17°C° 0.1 mm 5 mps 758 mmHg 70%
    21:00 +17°C° 0.1 mm 5 mps 758 mmHg 68%
    22:00 +17°C° 0.1 mm 6 mps 758 mmHg 67%
    23:00 +16°C° 0.1 mm 5 mps 757 mmHg 70%

    24 April, Wednesday

    Time Temperature Precipitation Wind Pressure Humidity
    00:00 +17°C° 0.1 mm 4 mps 757 mmHg 73%
    01:00 +17°C° 0.1 mm 3 mps 756 mmHg 76%
    02:00 +17°C° 0.1 mm 4 mps 756 mmHg 78%
    03:00 +17°C° 0.1 mm 4 mps 756 mmHg 79%
    04:00 +17°C° 0.1 mm 4 mps 755 mmHg 80%
    05:00 +16°C° 0.2 mm 5 mps 756 mmHg 82%
    06:00 +16°C° 0.2 mm 5 mps 756 mmHg 83%
    07:00 +16°C° 0.2 mm 6 mps 757 mmHg 84%
    08:00 +16°C° 0 mm 6 mps 757 mmHg 76%
    09:00 +17°C° 0 mm 6 mps 757 mmHg 67%
    10:00 +17°C° 0 mm 6 mps 758 mmHg 59%
    11:00 +17°C° 0 mm 6 mps 758 mmHg 54%
    12:00 +19°C° 0 mm 6 mps 758 mmHg 49%
    13:00 +20°C° 0 mm 6 mps 757 mmHg 44%
    14:00 +20°C° 0 mm 6 mps 757 mmHg 44%
    15:00 +20°C° 0 mm 6 mps 757 mmHg 43%
    16:00 +20°C° 0 mm 6 mps 757 mmHg 43%
    17:00 +19°C° 0 mm 5 mps 757 mmHg 48%
    18:00 +17°C° 0 mm 4 mps 757 mmHg 52%
    19:00 +16°C° 0 mm 3 mps 758 mmHg 57%
    20:00 +14°C° 0 mm 3 mps 758 mmHg 57%
    21:00 +13°C° 0 mm 4 mps 759 mmHg 58%
    22:00 +12°C° 0 mm 4 mps 759 mmHg 58%
    23:00 +11°C° 0 mm 4 mps 759 mmHg 58%

    25 April, Thursday

    Time Temperature Precipitation Wind Pressure Humidity
    00:00 +11°C° 0 mm 3 mps 760 mmHg 57%
    01:00 +10°C° 0 mm 3 mps 760 mmHg 56%
    02:00 +9°C° 0 mm 3 mps 760 mmHg 56%
    03:00 +8°C° 0 mm 3 mps 760 mmHg 56%
    04:00 +7°C° 0 mm 3 mps 760 mmHg 56%
    05:00 +8°C° 0 mm 2 mps 760 mmHg 55%
    06:00 +9°C° 0 mm 2 mps 761 mmHg 54%
    07:00 +9°C° 0 mm 2 mps 761 mmHg 53%
    08:00 +12°C° 0 mm 2 mps 761 mmHg 47%
    09:00 +14°C° 0 mm 2 mps 761 mmHg 42%
    10:00 +16°C° 0 mm 1 mps 762 mmHg 36%
    11:00 +18°C° 0 mm 1 mps 761 mmHg 34%
    12:00 +18°C° 0 mm 2 mps 761 mmHg 32%
    13:00 +19°C° 0 mm 2 mps 760 mmHg 31%
    14:00 +19°C° 0 mm 2 mps 760 mmHg 33%
    15:00 +19°C° 0 mm 2 mps 760 mmHg 35%
    16:00 +19°C° 0 mm 3 mps 759 mmHg 37%
    17:00 +18°C° 0 mm 3 mps 759 mmHg 42%
    18:00 +17°C° 0 mm 2 mps 759 mmHg 46%
    19:00 +16°C° 0 mm 2 mps 759 mmHg 51%
    20:00 +15°C° 0 mm 2 mps 759 mmHg 52%
    21:00 +15°C° 0 mm 2 mps 759 mmHg 53%
    22:00 +14°C° 0 mm 3 mps 759 mmHg 53%
    23:00 +13°C° 0.2 mm 3 mps 758 mmHg 60%

    26 April, Friday

    Time Temperature Precipitation Wind Pressure Humidity
    00:00 +13°C° 0.2 mm 3 mps 758 mmHg 66%
    01:00 +14°C° 0.2 mm 2 mps 757 mmHg 73%
    02:00 +13°C° 0.7 mm 2 mps 757 mmHg 78%
    03:00 +13°C° 0.7 mm 2 mps 756 mmHg 83%
    04:00 +13°C° 0.7 mm 2 mps 756 mmHg 88%
    05:00 +13°C° 2.1 mm 2 mps 755 mmHg 91%
    06:00 +14°C° 2.1 mm 2 mps 755 mmHg 94%
    07:00 +14°C° 2.1 mm 2 mps 755 mmHg 96%
    08:00 +15°C° 0.4 mm 2 mps 754 mmHg 94%
    09:00 +17°C° 0.4 mm 3 mps 753 mmHg 91%
    10:00 +18°C° 0.4 mm 3 mps 753 mmHg 89%
    11:00 +19°C° 0.7 mm 5 mps 752 mmHg 85%
    12:00 +20°C° 0.7 mm 7 mps 752 mmHg 81%
    13:00 +19°C° 0.7 mm 9 mps 751 mmHg 76%
    14:00 +20°C° 0.6 mm 8 mps 751 mmHg 78%
    15:00 +19°C° 0.6 mm 6 mps 751 mmHg 80%
    16:00 +19°C° 0.6 mm 5 mps 751 mmHg 82%
    17:00 +17°C° 0.3 mm 5 mps 752 mmHg 81%
    18:00 +16°C° 0.3 mm 6 mps 752 mmHg 81%
    19:00 +15°C° 0.3 mm 6 mps 753 mmHg 80%
    20:00 +14°C° 0 mm 7 mps 754 mmHg 79%
    21:00 +11°C° 0 mm 7 mps 755 mmHg 78%
    22:00 +10°C° 0 mm 7 mps 756 mmHg 78%
    23:00 +9°C° 0 mm 7 mps 756 mmHg 77%
    Show more